Showing default

LEMUR-2-LAILA, 66776

Orbit data source: Space-Track

LEMUR-2-LAILA, 66776 is a payload satellite owned by Spire (US) in SSO that was launched on Fri, 28 Nov 2025 UTC via an FALCON 9 launch vehicle from the Air Force Western Test Range (AFWTR). Payload-class satellites include a variety of spacecraft equipped with specific instruments for various scientific and technological missions. These include communications satellites like Starlink; space stations such as the ISS; scientific satellites like the Hubble; Earth observation satellites from companies like Planet Labs, Umbra, and HawkEye 360; GPS; miniature CubeSats for education and research; and military/defense satellites.

Loading next visibility...
Identifier
66776, 2025-276DQ
Orbit
SSO
Country
Flag of USUS
Related business
Manufacturer
Spire/Glasgow
Mission
Operational Commercial Com/MetRO
Bus & Motor
CUBESAT 3U, Unknown motor
Mass
7.6 kg wet, 7.6 kg dry
Launch date (UTC)
2025-11-28 (9 months ago)
Launch vehicle
FALCON 9
Launch site
Air Force Western Test Range (AFWTR)
Object type
Payload
Rocket body
Debris
Shape & HBR
Box + 2 Pan, 0.5 m
Radar Cross Section
0.063 m², Medium (>0.1 m² and < 1m²)

Expand to show TLE details & history
Last TLE update: 19 hours ago

TLE from 19 hours ago
0 LEMUR-2-LAILA
1 66776U 25276DQ  26238.19103198  .00004841  00000-0  21545-3 0  9994
2 66776  97.4133 311.0580 0000670  57.1231 303.0069 15.21942017 41098
Epoch: 2026-08-26T04:35Z
TLE epoch observation values (Epoch: 2026-08-26T04:35:05.163Z)
Latitude
-0.00005°
Longitude
-92.16108°
Altitude
502.825 km
Speed
7.613 km/s
True Right ascension
20h 44m 13s
True Declination
0° 00' 00"
Sunlit
Object was in full shadow at epoch
Visualization orbit readout
Latitude
Unknown
Longitude
Unknown
Altitude
Unknown
Speed
Unknown
Apparent Right ascension
Unknown
Apparent Declination
Unknown
Sunlit
N/A
Visualization observer readout
Local Sidereal Time
15:15:12
Azimuth
Unknown
Elevation
Unknown
Doppler factor
Unknown
Orbital elements
Apogee altitude
497.408 km
Perigee altitude
496.486 km
Semi-major axis
6,875.084 km
Eccentricity
0.00007
Inclination
97.4133°
RAAN
311.058°
Arg. of periapsis
57.1231°
True anomaly
303.00046°
Mean anomaly
303.0069°
Eccentric anomaly
303.00368°
Mean motion
3.80738 °/min
Orbital period
94.55 mins
BSTAR
0.00021545
Loading maneuver chart data...
Computing Atmospheric mass density...
Loading historical data...
Loading historical data...
Loading historical data...
Loading historical data...
Loading historical data...
Loading historical data...
Loading historical data...

Documentation

Showing up to 5 results
|